Powrót do katalogu

QIANFAN-69

AktywnyŁącznośćPO
NORAD 62799·PAYLOAD·🇨🇳 China

Wystrzelony Jan 23, 2025 z Taiyuan Satellite Launch Center

Loading…

Następne Przeloty (najbliższe 24 godziny)

TLE

ŚwieżeSource: Space-Track

Epoka: Sep 14, 2026, 22:51 UTC

1 62799U 25016Q   26257.95230373  .00000028  00000-0  25083-4 0  9993
2 62799  88.9645  74.2252 0013948 266.8233  93.1323 13.51024065 84574

Śledź QIANFAN-69 w czasie rzeczywistym z AllMySat

Download on the App Store